This is the latest recevied weather packets stored in our database for station/object KC3JUG-13. If no packets are shown the sender has not sent any weather packets the latest 10 day(s).
| Time | Temp. | Humidity | Pressure | Rain* | Wind** | Luminosity | Snow |
|---|---|---|---|---|---|---|---|
| 1777788043 | 5.56° C | 77% | 1014.2 hPa | 0 mm | - | - | - |
| 1777787263 | 5.56° C | 77% | 1014.4 hPa | 0 mm | - | - | - |
| 1777786483 | 5.56° C | 77% | 1014.5 hPa | 0 mm | - | - | - |
| 1777785703 | 5.56° C | 77% | 1014.6 hPa | 0 mm | - | - | - |
| 1777784923 | 6.11° C | 76% | 1014.7 hPa | 0 mm | - | - | - |
| 1777784143 | 6.11° C | 75% | 1014.9 hPa | 0 mm | - | - | - |
| 1777783363 | 6.67° C | 74% | 1014.9 hPa | 0 mm | - | - | - |
| 1777782583 | 6.67° C | 73% | 1014.9 hPa | 0 mm | - | - | - |
| 1777781803 | 6.67° C | 73% | 1015.2 hPa | 0 mm | - | - | - |
| 1777781023 | 7.22° C | 72% | 1015.2 hPa | 0 mm | - | - | - |
| 1777780243 | 7.22° C | 71% | 1015.2 hPa | 0 mm | - | - | - |
| 1777779499 | 7.78° C | 69% | 1015.3 hPa | 0 mm | - | - | - |
| 1777779463 | 7.78° C | 69% | 1015.3 hPa | 0 mm | - | - | - |
| 1777778684 | 7.78° C | 67% | 1015.3 hPa | 0 mm | - | - | - |
| 1777777903 | 8.33° C | 66% | 1015.4 hPa | 0 mm | - | - | - |
| 1777777124 | 8.33° C | 66% | 1015.4 hPa | 0 mm | - | - | - |
| 1777776344 | 8.33° C | 66% | 1015.4 hPa | 0 mm | - | - | - |
| 1777775564 | 8.33° C | 67% | 1015.4 hPa | 0 mm | - | - | - |
| 1777774784 | 8.33° C | 65% | 1015.4 hPa | 0 mm | - | - | - |
| 1777774004 | 8.89° C | 64% | 1015.4 hPa | 0 mm | - | - | - |
| 1777773224 | 8.89° C | 63% | 1015.4 hPa | 0 mm | - | - | - |
| 1777772444 | 8.89° C | 61% | 1015.3 hPa | 0 mm | - | - | - |
| 1777771664 | 9.44° C | 60% | 1015.1 hPa | 0 mm | - | - | - |
| 1777770884 | 9.44° C | 60% | 1015 hPa | 0 mm | - | - | - |
| 1777770104 | 9.44° C | 59% | 1014.9 hPa | 0 mm | - | - | - |
* Rain latest hour (hover to see other rain measurements)
** Current wind speed in m/s (hover to see current wind gust speed)